User: anonymous   Login
Location: Mentone
(34.5413°N, 85.5351°W)
Time: 11:54:55
(UTC-05:00)
Language:

A-11 Canister half - Orbit

View from above orbital plane
View from above orbital plane
View from above satellite
View from above satellite

Ground track
Ground track

The orbit data is extracted from the following two-line orbital elements,

1    53U 60009E   17083.01769077 -.00000084 +00000-0 +00000-0 0  9992
2    53 047.2767 302.1772 0097272 189.5971 170.2959 12.17195885524665
Epoch (UTC): 24 March 2017 00:25:28
Eccentricity: 0.0097272
inclination: 47.2767°
perigee height: 1527 km
apogee height: 1682 km
right ascension of ascending node: 302.1772°
argument of perigee: 189.5971°
revolutions per day: 12.17195885
mean anomaly at epoch: 170.2959°
orbit number at epoch: 52466

The dashed part of the orbit path shows where the satellite is in the earth's shadow,  

DLR